Flag for Russia Weather past 2 weeks in Samara, Russia

50 °F


Feels Like: 45 °F
Forecast: 39 / 60 °F
Wind: 13 mph from Northwest

Location: Samara

Current Time: Oct 4, 2015 at 5:44:46 PM

Latest Report: Oct 4, 2015 at 5:00 PM

Visibility: 10 mi

Pressure: 30.21 "Hg

Humidity: 43%

Dew point: 28 °F

Location of SamaraLocation

Historic Weather in Samara — Graph


Samara temperature yesterday

Maximum temperature yesterday: 59 °F (at 2:00 PM)
Minimum temperature yesterday: 45 °F (at 12:30 AM)
Average temperature yesterday: 51 °F

Past Weeks' High & Low Weather Summary

High86 °F (Sep 24, 2:00 PM)87% (Oct 1, 6:00 AM)30.36 "Hg (Oct 1, 6:00 AM)
Low39 °F (Oct 1, 10:30 PM)14% (Sep 29, 1:00 PM)29.36 "Hg (Oct 3, 11:30 AM)
Average62 °F45%30.14 "Hg
* Reported Sep 19 4:00 PM — Oct 4 4:30 PM, Samara, Weather by CustomWeather, © 2015

Note: Actual official high and low records may vary slightly from our data, if they occured in-between our weather recording intervals... More about our weather records


Samara weather history for previous 24 hours

Time TempWeatherWind HumidityBarometerVisibility
4:30 PM
Sun, Oct 4
50 °FSunny.13 mph43%30.21 "Hg10 mi
4:00 PM52 °FSunny.13 mph38%30.18 "Hg10 mi
3:30 PM52 °FPassing clouds.13 mph35%30.18 "HgN/A
3:00 PM52 °FPassing clouds.17 mph35%30.18 "HgN/A
2:30 PM52 °FPassing clouds.15 mph38%30.18 "HgN/A
2:00 PM52 °FScattered clouds.17 mph32%30.18 "HgN/A
1:30 PM52 °FScattered clouds.15 mph35%30.18 "HgN/A
1:00 PM52 °FBroken clouds.15 mph41%30.18 "HgN/A
12:30 PM50 °FBroken clouds.13 mph40%30.18 "HgN/A
12:00 PM48 °FBroken clouds.15 mph43%30.15 "HgN/A
11:30 AM48 °FBroken clouds.15 mph46%30.15 "HgN/A
11:00 AM46 °FBroken clouds.15 mph50%30.15 "HgN/A
10:30 AM46 °FBroken clouds.13 mph50%30.12 "HgN/A
10:00 AM46 °FBroken clouds.15 mph50%30.12 "HgN/A
9:30 AM45 °FBroken clouds.15 mph53%30.09 "HgN/A
9:00 AM45 °FBroken clouds.15 mph57%30.09 "HgN/A
8:30 AM45 °FBroken clouds.6 mph57%30.07 "HgN/A
8:00 AM43 °FBroken clouds.8 mph61%30.04 "HgN/A
7:30 AM43 °FPartly cloudy.13 mph61%30.01 "HgN/A
7:00 AM43 °FPartly cloudy.13 mph66%30.01 "HgN/A
6:30 AM43 °FPartly cloudy.10 mph66%29.98 "HgN/A
6:00 AM43 °FPassing clouds.13 mph66%29.98 "HgN/A
5:30 AM43 °FPartly cloudy.13 mph66%29.95 "HgN/A
5:00 AM45 °FPartly cloudy.15 mph61%29.92 "HgN/A
4:30 AM45 °FPartly cloudy.15 mph61%29.89 "HgN/A
4:00 AM45 °FPartly cloudy.15 mph61%29.89 "HgN/A
3:30 AM45 °FPartly cloudy.17 mph61%29.86 "HgN/A
3:00 AM46 °FOvercast.17 mph62%29.83 "HgN/A
2:30 AM46 °FMostly cloudy.17 mph62%29.80 "HgN/A
1:30 AM50 °FMostly cloudy.24 mph54%29.74 "HgN/A
1:00 AM50 °FMostly cloudy.20 mph54%29.71 "HgN/A
12:30 AM50 °FMostly cloudy.20 mph54%29.68 "HgN/A
12:00 AM50 °FMostly cloudy.20 mph50%29.68 "HgN/A
11:30 PM
Sat, Oct 3
50 °FMostly cloudy.22 mph50%29.65 "HgN/A
11:00 PM50 °FMostly cloudy.20 mph50%29.65 "HgN/A
10:30 PM52 °FMostly cloudy.20 mph47%29.62 "HgN/A
10:00 PM50 °FMostly cloudy.15 mph50%29.62 "HgN/A
9:30 PM52 °FMostly cloudy.20 mph47%29.59 "HgN/A
9:00 PM52 °FMostly cloudy.22 mph47%29.56 "HgN/A
8:30 PM52 °FMostly cloudy.17 mph47%29.56 "HgN/A
8:00 PM52 °FMostly cloudy.24 mph44%29.53 "HgN/A
7:30 PM52 °FOvercast.20 mph54%29.53 "HgN/A
7:00 PM52 °FMore clouds than sun.13 mph62%29.50 "HgN/A
6:30 PM52 °FMore clouds than sun.17 mph67%29.47 "HgN/A
6:00 PM48 °FSprinkles. Mostly cloudy.29 mph76%29.47 "Hg2 mi
5:30 PM54 °FCloudy.13 mph58%29.45 "HgN/A
5:00 PM54 °FCloudy.20 mph58%29.45 "HgN/A
Weather by CustomWeather, © 2015

See weather overviewHow to use our weather pages